This demonstration page uses our WeatherBlox Daily Observations layout. Learn more.

Left ArrowRight Arrow

40.92501, -98.34201

Hourly Observations for May 4, 2020

Temp ( °F °C ) Dew Point ( °F °C ) Humidity (%) Winds ( mph kmh ) Pressure ( in mb ) Visibility ( mi km ) Precip ( " mm )
12:53 am 00:53 Partly Cloudy 65 18.3 40 4.4 40 40 SE 10 17 29.95 1014 10 16 0.00 0.00
1:53 am 01:53 Cloudy with Light Rain 64 17.8 42 5.6 45 45 SSE 13 20 29.93 1014 10 16 0.00 0.00
2:53 am 02:53 Cloudy with Light Rain 58 14.4 49 9.4 72 72 S 7 11 29.97 1015 10 16 0.01 0.25
3:53 am 03:53 Cloudy with Light Rain 58 14.4 49 9.4 72 72 SSE 13 20 29.90 1013 10 16 0.01 0.25
4:53 am 04:53 Cloudy with Light Rain 57 13.9 48 8.9 72 72 S 7 11 29.90 1013 10 16 0.00 0.00
5:53 am 05:53 Cloudy with Rain 56 13.3 49 9.4 77 77 SSE 7 11 29.93 1014 4 6 0.09 2.29
6:53 am 06:53 Cloudy with Light Rain 55 12.8 50 10 83 83 NNW 10 17 29.97 1015 6 10 0.11 2.79
7:53 am 07:53 Cloudy with Rain 54 12.2 51 10.6 90 90 ENE 12 19 29.93 1014 4 6 0.12 3.05
8:09 am 08:09 Cloudy with Rain 54 12.2 51 10.6 90 90 NE 12 19 29.94 1014 3 4 0.05 1.27
8:16 am 08:16 Cloudy with Light Rain 54 12.2 51 10.6 90 90 NE 10 17 29.94 1014 3 5 0.06 1.52
8:53 am 08:53 Cloudy with Light Rain 54 12.2 50 10 87 87 NE 12 19 29.91 1013 9 14 0.10 2.54
9:53 am 09:53 Mostly Cloudy 56 13.3 51 10.6 84 84 ENE 13 20 29.89 1012 10 16 0.00 0.00
10:53 am 10:53 Cloudy 59 15 49 9.4 69 69 E 16 26 29.90 1013 10 16 0.00 0.00
11:53 am 11:53 Partly Cloudy 61 16.1 46 7.8 58 58 ESE 22 35 29.91 1013 10 16 0.00 0.00
12:53 pm 12:53 Cloudy 62 16.7 45 7.2 54 54 SE 22 35 29.91 1013 10 16 0.00 0.00
1:53 pm 13:53 Cloudy 60 15.6 44 6.7 56 56 ESE 15 24 29.92 1013 10 16 0.00 0.00
2:53 pm 14:53 Cloudy 60 15.6 45 7.2 58 58 ESE 8 13 29.94 1014 10 16 0.00 0.00
3:53 pm 15:53 Cloudy 60 15.6 45 7.2 58 58 E 10 17 29.93 1014 10 16 0.00 0.00
4:53 pm 16:53 Cloudy 61 16.1 46 7.8 58 58 NE 12 19 29.93 1014 10 16 0.00 0.00
5:53 pm 17:53 Mostly Cloudy 61 16.1 47 8.3 60 60 NE 8 13 29.95 1014 10 16 0.00 0.00
6:53 pm 18:53 Cloudy 60 15.6 45 7.2 58 58 Calm 29.98 1015 10 16 0.00 0.00
7:53 pm 19:53 Cloudy 59 15 46 7.8 62 62 NW 9 15 29.99 1016 10 16 0.00 0.00
8:06 pm 20:06 Cloudy 58 14.4 47 8.3 67 67 NW 18 30 29.98 1015 10 16 0.00 0.00
8:49 pm 20:49 Cloudy with Light Rain 54 12 46 8 77 77 NNW 15 24 30.02 1017 10 16 0.00 0.00
8:53 pm 20:53 Cloudy 54 12.2 47 8.3 77 77 NNW 14 22 30.04 1017 10 16 0.00 0.00
9:53 pm 21:53 Cloudy 54 12.2 47 8.3 77 77 NNW 8 13 30.06 1018 10 16 0.00 0.00
10:53 pm 22:53 Clear 52 11.1 45 7.2 77 77 NW 12 19 30.07 1018 10 16 0.00 0.00
11:53 pm 23:53 Clear 49 9.4 43 6.1 80 80 WNW 8 13 30.07 1018 10 16 0.00 0.00

Powered by AerisWeather